Probability
3 2 1 2 2 2 1 0 0 0 0 0 0 0 0 0 0 0 2 7 13 18 24 27 21 14 9 6 4 4 3 2 1 0 0 1 2 3 3 2 1 0 0
2 1 0 1 1 2 2 1 0 0 0 0 0 0 0 0 0 0 1 4 10 18 25 28 25 19 13 8 6 6 7 6 5 3 3 3 3 4 3 3 2 1 0
1 0 0 0 0 2 3 2 1 1 0 0 0 0 0 0 0 0 0 1 5 12 19 23 25 23 18 12 8 8 10 10 9 7 6 6 5 5 4 3 4 3 2
0 0 0 0 0 1 2 2 2 1 0 0 0 0 0 0 0 0 0 0 1 5 9 14 17 19 18 14 10 8 9 9 8 7 6 5 5 5 4 4 5 6 6
0 0 0 0 0 1 1 1 1 1 0 0 0 0 0 0 0 0 0 0 0 1 3 6 9 11 13 13 11 8 6 4 4 4 4 3 4 5 4 4 6 8 9
1 0 0 0 0 0 0 0 0 0 0 0 0 0 0 0 0 0 0 0 0 0 0 2 4 5 7 9 8 6 3 1 2 3 3 2 3 4 5 5 5 6 7
2 1 0 0 0 0 0 0 0 0 0 0 0 0 0 0 0 0 0 0 0 0 0 0 1 1 2 3 4 3 1 0 1 2 3 2 1 2 4 4 4 4 4
2 1 0 0 0 0 0 0 0 0 0 0 0 0 0 0 0 0 0 0 0 0 0 0 0 0 0 0 0 0 0 0 1 1 2 2 1 0 1 2 3 3 2
1 1 0 0 0 0 0 0 0 0 0 0 0 0 0 0 0 0 0 0 0 0 0 0 0 0 0 0 0 0 0 0 0 0 1 1 0 0 0 0 1 1 1
0 0 0 0 0 0 0 0 0 0 0 0 0 0 0 0 0 0 0 0 0 0 0 0 0 0 0 0 0 0 0 0 0 0 0 0 0 0 0 0 0 0 0
0 0 0 0 0 0 0 0 0 0 0 0 0 0 0 0 0 0 0 0 0 0 0 0 0 0 0 0 0 0 0 0 0 0 0 0 0 0 0 0 0 0 0
0 0 0 0 0 0 0 0 0 0 0 0 0 0 0 0 0 0 0 0 0 0 0 0 0 0 0 0 0 0 0 0 0 0 0 0 0 0 0 0 0 0 0
0 0 0 0 0 0 0 0 0 0 0 0 0 0 0 0 0 0 0 0 0 0 0 0 0 0 0 0 0 0 0 0 0 0 0 0 0 0 0 0 0 0 0
0 0 0 0 0 0 0 0 0 0 0 0 0 0 0 0 0 0 0 0 0 0 0 0 0 0 0 0 0 0 0 0 0 0 0 0 0 0 0 0 0 0 0
0 0 0 0 0 0 0 0 0 0 0 0 0 0 0 0 0 0 0 0 0 0 0 0 0 0 0 0 0 0 0 0 0 0 0 0 0 0 0 0 0 0 0
0 0 0 0 0 0 0 0 0 0 0 0 0 0 0 0 0 0 0 0 0 0 0 0 0 0 0 0 0 0 0 0 0 0 0 0 0 0 0 0 0 0 0
0 0 0 0 0 0 0 0 0 0 0 0 0 0 0 0 0 0 0 0 0 0 0 0 0 0 0 0 0 0 0 0 0 0 0 0 0 0 0 0 0 0 0
0 0 0 0 0 0 0 0 0 0 0 0 0 0 0 0 0 0 0 0 0 0 0 0 0 0 0 0 0 0 0 0 0 0 0 0 0 0 0 0 0 0 0
0 0 0 0 0 0 0 0 0 0 0 0 0 0 0 0 0 0 0 0 0 0 0 0 0 0 0 0 0 0 0 0 0 0 0 0 0 0 0 0 0 0 0
0 0 0 0 0 0 0 0 0 0 0 0 0 0 0 0 0 0 0 0 0 0 0 0 0 0 0 0 0 0 0 0 0 0 0 0 0 0 0 0 0 0 0
0 0 0 0 0 0 0 0 0 0 0 0 0 0 0 0 0 0 0 0 0 0 0 0 0 0 0 0 0 0 0 0 0 0 0 0 0 0 0 0 0 0 0
0 0 0 0 0 0 0 0 0 0 0 0 0 0 0 0 0 0 0 0 0 0 0 0 0 0 0 0 0 0 0 0 0 0 0 0 0 0 0 0 0 0 0
0 0 0 0 0 0 0 0 0 0 0 0 0 0 0 0 0 0 0 0 0 0 0 0 0 0 0 0 0 0 0 0 0 0 0 0 0 0 0 0 0 0 0
0 0 0 0 0 0 0 0 0 0 0 0 0 0 0 0 0 0 0 0 0 0 0 0 0 0 0 0 0 0 0 0 0 0 0 0 0 0 0 0 0 0 0
0 0 0 0 0 0 0 0 0 0 0 0 0 0 0 0 0 0 0 0 0 0 0 0 0 0 0 0 0 0 0 0 0 0 0 0 0 0 0 0 0 0 0
0 0 0 0 0 0 0 0 0 0 0 0 0 0 0 0 0 0 0 0 0 0 0 0 0 0 0 0 0 0 0 0 0 0 0 0 0 0 0 0 0 0 0
Wind_Speed
4 3 2 2 2 2 2 1 1 1 1 1 1 1 2 2 2 2 2 5 7 9 11 11 12 12 12 12 12 11 11 12 12 11 10 10 9 9 9 9 8 8 8
3 3 3 2 2 2 2 2 2 1 1 0 1 1 1 1 2 2 2 2 4 5 7 9 10 10 11 11 10 10 10 10 10 9 9 8 8 8 8 8 8 8 8
4 3 3 2 2 2 2 2 2 1 1 0 1 1 1 1 1 1 1 1 1 2 4 4 4 6 8 9 9 9 9 9 8 8 8 8 7 6 6 5 4 4 4
4 3 3 2 2 2 2 2 2 1 1 1 1 2 2 2 3 2 2 2 1 1 2 1 1 2 5 6 7 7 8 7 7 7 7 6 6 5 5 4 4 3 3
4 3 3 2 2 2 2 2 1 1 1 1 1 2 3 3 3 3 3 3 3 2 2 4 4 3 2 2 2 3 4 4 4 4 4 3 3 3 2 2 2 2 2
4 4 3 3 3 3 2 2 3 3 2 2 3 3 3 3 3 4 4 4 4 5 4 4 3 4 5 5 3 2 1 1 1 1 1 1 1 1 1 1 1 1 1
4 4 4 4 4 3 3 3 3 4 3 2 2 2 2 4 4 4 4 4 6 6 6 6 5 4 4 7 6 5 4 3 4 4 5 5 4 2 1 0 1 1 2
6 5 6 5 5 4 5 4 2 2 2 2 1 1 1 1 3 4 4 4 5 5 6 6 6 6 5 4 7 9 9 8 8 7 7 6 7 7 5 4 3 3 3
8 8 8 7 6 5 4 4 3 3 2 2 3 1 2 2 1 2 4 5 5 5 5 5 7 6 6 5 4 8 11 11 11 9 9 8 8 7 7 7 7 6 5
10 10 9 8 8 6 6 5 5 4 3 2 3 4 3 2 1 1 2 4 5 6 6 5 6 6 6 4 6 9 10 10 10 10 10 10 9 9 8 7 7 8 7
10 11 10 9 9 7 8 8 8 8 5 4 3 2 3 4 4 2 1 2 3 4 5 5 5 5 5 5 3 6 8 8 7 7 7 7 7 7 7 7 8 8 9
8 11 10 9 9 8 8 8 9 10 8 8 7 5 4 3 3 3 2 2 2 3 4 4 5 4 4 4 5 7 6 6 5 6 6 6 7 8 8 8 9 9 9
7 9 9 9 8 8 9 8 9 10 9 10 8 6 6 5 3 2 2 2 2 2 3 3 4 4 4 4 4 8 6 7 7 7 7 8 8 9 9 10 10 10 10
8 8 9 10 10 9 9 8 8 8 8 8 9 7 6 5 5 3 2 1 2 2 3 3 2 4 4 4 5 7 5 8 8 8 8 9 10 10 10 10 10 10 10
9 9 10 10 10 9 9 8 8 8 8 8 7 7 6 5 5 4 3 2 2 1 2 3 2 4 4 3 5 4 4 7 9 9 9 9 9 10 10 10 10 10 10
9 10 10 10 9 9 8 8 7 7 8 7 5 7 6 4 5 5 4 4 3 2 0 2 2 3 4 4 6 5 4 8 9 10 10 10 10 10 10 10 10 10 10
10 10 9 9 9 8 7 7 7 7 8 7 6 6 6 5 4 4 4 4 4 2 1 2 2 3 3 5 6 5 4 4 5 10 11 10 10 9 10 10 9 9 10
9 9 8 8 8 8 7 7 7 7 6 6 5 5 5 4 5 3 3 3 2 2 1 2 2 3 3 4 5 6 5 5 5 9 10 10 9 9 9 9 9 8 8
8 8 8 8 8 7 7 6 6 5 5 4 4 4 3 4 4 3 2 2 2 1 0 1 2 2 3 3 4 4 5 4 6 6 7 8 9 9 9 9 9 8 7
8 7 7 7 7 6 6 5 5 5 4 4 3 3 2 2 2 2 2 2 1 2 1 1 2 2 3 3 3 3 5 5 5 4 5 7 7 8 8 8 8 7 7
7 6 6 6 6 5 5 4 4 4 4 4 4 3 2 2 3 2 2 2 2 2 2 2 2 2 3 3 3 3 4 6 4 2 4 5 5 4 5 6 7 7 7
6 6 6 6 6 5 7 7 5 4 4 4 4 4 3 3 5 6 6 5 3 3 3 2 2 3 4 3 3 3 3 4 4 2 4 5 3 4 4 4 6 8 7
4 5 5 5 5 6 9 8 7 4 4 3 3 3 3 3 5 5 7 7 5 5 5 4 4 5 4 3 4 5 4 3 4 4 3 4 3 4 4 4 8 8 8
3 3 3 4 4 6 8 7 6 4 3 3 3 3 3 5 5 6 6 7 6 5 4 4 6 7 7 7 5 4 4 5 6 4 2 3 3 3 4 3 5 8 8
2 2 3 3 4 5 8 7 5 3 3 4 4 4 4 5 7 8 5 6 7 6 4 5 7 9 11 11 7 3 3 3 3 2 1 2 3 3 3 3 3 6 7
2 3 3 3 3 4 7 8 6 3 4 4 4 4 5 7 9 7 3 3 6 6 8 9 7 6 5 4 3 4 3 2 2 3 1 2 2 3 3 2 3 3 4
Wind_Direction
183 186 188 190 195 182 185 193 211 242 276 289 266 239 251 253 252 244 251 242 229 225 223 218 215 216 215 215 216 214 214 214 213 211 210 211 211 211 214 216 215 215 216
181 186 194 198 201 192 184 179 190 200 205 273 307 292 275 261 256 245 246 261 245 227 225 223 219 219 219 216 216 216 216 216 215 212 208 207 208 211 215 219 222 222 220
179 181 189 200 202 178 167 158 160 150 158 122 31 25 30 14 8 321 294 284 286 252 233 229 218 220 222 220 218 217 219 220 218 213 209 207 206 205 207 205 205 209 216
172 168 177 192 177 153 152 151 146 130 108 75 50 30 36 39 36 38 46 47 27 11 355 354 240 235 234 235 229 222 222 221 219 218 218 213 205 198 194 193 191 189 198
148 152 151 140 125 120 125 140 112 116 106 91 74 47 39 39 32 35 42 46 44 44 40 30 30 12 327 292 264 234 221 216 217 214 208 201 189 180 178 185 185 190 207
120 127 119 109 107 104 95 101 99 80 85 88 76 58 42 38 37 34 33 34 34 36 39 38 30 21 24 24 28 39 28 265 220 186 217 230 202 150 147 171 216 236 257
96 104 107 95 91 93 92 100 103 93 76 73 94 72 48 48 47 37 34 36 34 32 37 37 36 32 27 31 35 33 20 26 52 60 53 41 33 30 56 352 304 299 289
74 80 83 81 75 82 72 61 83 110 78 39 106 134 129 37 45 37 39 41 34 31 36 38 40 40 36 27 33 41 39 42 48 49 46 38 33 30 16 348 315 305 302
72 76 78 79 73 73 71 57 56 99 114 60 39 106 170 194 121 49 44 42 37 36 33 33 38 36 37 35 29 40 47 42 43 43 42 38 31 24 14 7 358 342 324
65 68 70 72 70 67 67 59 54 60 93 95 59 41 48 63 133 123 59 43 44 40 34 33 32 30 30 31 36 46 50 48 42 37 34 31 24 17 9 360 350 345 337
61 65 67 69 68 66 66 65 64 62 62 69 64 45 45 45 44 96 88 34 40 34 32 31 32 27 23 23 21 38 45 45 39 31 24 15 6 358 352 347 339 335 332
65 64 67 69 70 68 66 66 67 68 68 69 64 55 51 49 38 59 86 55 34 20 21 25 28 20 15 13 12 18 24 29 21 10 359 351 345 339 333 329 323 320 320
74 67 71 71 71 69 68 70 71 68 65 69 67 63 58 50 36 47 82 80 51 14 2 13 14 9 9 6 359 4 10 8 1 350 341 333 330 326 322 318 312 310 310
80 76 75 73 71 70 70 70 71 70 68 68 67 64 61 46 41 44 61 91 73 28 18 358 342 358 356 351 352 359 354 348 342 338 329 323 319 316 313 310 307 303 301
84 77 76 73 68 66 67 70 72 70 69 66 65 64 61 48 45 43 46 51 94 71 13 338 332 337 343 340 347 345 333 328 329 325 319 315 312 309 306 303 300 297 295
80 78 73 70 68 65 66 70 70 69 72 65 66 66 59 48 47 43 45 47 52 91 60 316 307 311 322 338 347 341 325 326 322 319 314 311 306 303 304 302 299 296 293
76 75 73 72 68 64 63 69 67 66 68 62 58 65 60 54 53 43 43 46 44 48 51 314 296 305 311 323 329 329 319 314 311 312 312 310 307 307 308 308 307 303 298
73 74 73 71 68 63 61 66 68 64 67 65 59 62 55 59 55 45 46 43 37 33 26 324 310 311 305 312 317 317 320 319 313 307 311 313 313 313 315 314 310 304 301
75 71 70 69 64 60 60 61 67 67 66 65 62 65 59 61 50 35 38 34 19 22 18 301 302 300 297 308 320 317 321 317 317 311 309 312 318 320 318 315 312 309 305
78 73 70 67 63 58 56 56 62 61 57 52 51 55 56 62 47 14 10 0 350 355 343 313 296 295 291 299 305 318 328 330 322 321 322 319 320 322 322 324 325 323 320
78 74 70 61 52 51 47 57 58 59 52 45 38 28 17 41 38 13 355 335 327 324 323 317 310 307 305 313 320 319 314 321 309 319 320 321 326 327 335 338 340 340 338
72 69 65 62 51 44 44 60 72 61 52 43 25 4 352 21 11 7 358 348 319 284 289 285 289 297 293 288 292 305 316 329 316 326 324 312 324 325 337 343 347 349 353
76 74 67 64 54 35 42 50 60 64 51 37 22 3 351 353 357 347 343 346 335 302 256 240 265 274 279 280 296 302 299 292 283 301 320 300 316 318 333 343 350 358 0
83 79 72 64 55 36 38 46 51 50 43 25 8 352 338 334 344 344 338 338 331 317 289 254 253 269 272 276 262 264 288 291 278 264 243 282 311 314 321 325 349 1 4
86 82 82 69 55 27 27 39 44 27 20 6 356 352 346 337 333 342 341 334 330 328 319 295 276 276 277 276 261 241 258 277 306 311 217 274 305 312 306 306 335 355 358
99 94 78 62 54 30 21 31 35 23 11 354 344 345 350 343 335 339 331 324 325 323 332 333 331 325 311 306 276 223 240 257 287 297 259 274 303 323 315 305 316 337 348